BENGL52 KNTU-KNTU

Flight info

Callsign BENGL52
Flight time N/A
Altitude 3000
Route DCT
Aircraft F35/M-SDFIRY/LB1

Departure

Time 2026-04-29 21:32
Airport Oceana Naval Air Station (KNTU)

Arrival

Time N/A
Airport Oceana Naval Air Station (KNTU)
Time Latitude Longitude Altitude Speed Heading
2026-04-29 21:32 36.76055 -75.96013 4251 ft 424 kts 148°
2026-04-29 21:32 36.73582 -75.94092 3352 ft 415 kts 154°
2026-04-29 21:32 36.70943 -75.92750 3151 ft 442 kts 163°
2026-04-29 21:32 36.67555 -75.91386 3135 ft 570 kts 163°
2026-04-29 21:33 36.63600 -75.89838 2816 ft 609 kts 163°
2026-04-29 21:33 36.59664 -75.88479 2320 ft 523 kts 168°
2026-04-29 21:33 36.56445 -75.87927 2153 ft 454 kts 176°
2026-04-29 21:33 36.53336 -75.87678 2064 ft 446 kts 178°
2026-04-29 21:34 36.50226 -75.87516 2030 ft 445 kts 178°
2026-04-29 21:34 36.47128 -75.87357 2015 ft 445 kts 175°
2026-04-29 21:34 36.44331 -75.86715 1985 ft 377 kts 168°
2026-04-29 21:34 36.41970 -75.85925 1973 ft 329 kts 165°
2026-04-29 21:35 36.39911 -75.85173 1969 ft 288 kts 164°
2026-04-29 21:35 36.38123 -75.84484 1984 ft 250 kts 164°
2026-04-29 21:35 36.36576 -75.83872 1967 ft 224 kts 165°
2026-04-29 21:35 36.35103 -75.83275 1970 ft 222 kts 164°
2026-04-29 21:36 36.33617 -75.82669 1978 ft 223 kts 164°
2026-04-29 21:36 36.32142 -75.82074 1985 ft 226 kts 164°
2026-04-29 21:36 36.31162 -75.81677 1997 ft 224 kts 164°
2026-04-29 21:36 36.29200 -75.80870 2011 ft 223 kts 164°
2026-04-29 21:37 36.28205 -75.80466 2010 ft 227 kts 164°
2026-04-29 21:37 36.26234 -75.79664 2029 ft 224 kts 164°
2026-04-29 21:37 36.25029 -75.79177 2057 ft 228 kts 163°
2026-04-29 21:37 36.23991 -75.78755 2047 ft 225 kts 164°
2026-04-29 21:38 36.22507 -75.78149 2030 ft 227 kts 163°
2026-04-29 21:38 36.21009 -75.77551 2014 ft 225 kts 164°
2026-04-29 21:38 36.19519 -75.76956 2016 ft 228 kts 164°
2026-04-29 21:38 36.18025 -75.76366 2010 ft 225 kts 164°
2026-04-29 21:39 36.16534 -75.75774 2010 ft 224 kts 163°
2026-04-29 21:39 36.15068 -75.75202 2021 ft 224 kts 164°
2026-04-29 21:39 36.13583 -75.74615 2020 ft 224 kts 164°
2026-04-29 21:39 36.12089 -75.74029 2035 ft 225 kts 164°
2026-04-29 21:40 36.10598 -75.73441 2053 ft 225 kts 164°
2026-04-29 21:40 36.09104 -75.72848 2035 ft 225 kts 164°
2026-04-29 21:40 36.07608 -75.72252 2048 ft 227 kts 164°
2026-04-29 21:40 36.06112 -75.71657 2067 ft 225 kts 164°
2026-04-29 21:41 36.04616 -75.71064 2067 ft 225 kts 164°
2026-04-29 21:41 36.03128 -75.70474 2039 ft 225 kts 164°
2026-04-29 21:41 36.01643 -75.69885 2039 ft 224 kts 164°
2026-04-29 21:41 36.00170 -75.69302 2070 ft 227 kts 164°
2026-04-29 21:42 35.98673 -75.68709 2037 ft 227 kts 164°
2026-04-29 21:42 35.97172 -75.68112 2021 ft 226 kts 164°
2026-04-29 21:42 35.96799 -75.69198 2380 ft 256 kts 302°
2026-04-29 21:42 35.97371 -75.71130 2206 ft 239 kts 263°
2026-04-29 21:43 35.96745 -75.72906 2161 ft 223 kts 220°
2026-04-29 21:43 35.95442 -75.74007 2310 ft 226 kts 210°
2026-04-29 21:43 35.94063 -75.74961 2333 ft 226 kts 209°
2026-04-29 21:43 35.92578 -75.76040 2316 ft 249 kts 210°
2026-04-29 21:44 35.91086 -75.77145 2319 ft 248 kts 210°
2026-04-29 21:44 35.89594 -75.78239 2334 ft 249 kts 210°
2026-04-29 21:44 35.88109 -75.79330 2340 ft 250 kts 210°
2026-04-29 21:44 35.86624 -75.80361 2333 ft 246 kts 207°
2026-04-29 21:45 35.85078 -75.81312 2327 ft 246 kts 205°
2026-04-29 21:45 35.83512 -75.82220 2348 ft 249 kts 205°
2026-04-29 21:45 35.82011 -75.83252 2372 ft 250 kts 212°
2026-04-29 21:45 35.80566 -75.84376 2345 ft 248 kts 212°
2026-04-29 21:46 35.79104 -75.85512 2331 ft 248 kts 212°
2026-04-29 21:46 35.77641 -75.86648 2335 ft 246 kts 212°
2026-04-29 21:46 35.76179 -75.87787 2315 ft 241 kts 211°
2026-04-29 21:46 35.74776 -75.88746 2296 ft 229 kts 207°
2026-04-29 21:47 35.73354 -75.89604 2329 ft 228 kts 206°
2026-04-29 21:47 35.71940 -75.90439 2344 ft 226 kts 206°